TimeCST,TemperatureF,Dew PointF,Humidity,Sea Level PressureIn,VisibilityMPH,Wind Direction,Wind SpeedMPH,Gust SpeedMPH,PrecipitationIn,Events,Conditions,WindDirDegrees,DateUTC
12:15 AM,21.2,19.4,93,29.24,10.0,West,8.1,-,N/A,,Scattered Clouds,260,2014-01-25 06:15:00
12:35 AM,21.2,21.2,100,29.24,10.0,West,5.8,-,N/A,,Overcast,280,2014-01-25 06:35:00
12:55 AM,21.2,21.2,100,29.25,3.0,WNW,8.1,-,N/A,,Mostly Cloudy,300,2014-01-25 06:55:00
1:15 AM,23.0,23.0,100,29.25,10.0,WNW,8.1,-,N/A,,Overcast,290,2014-01-25 07:15:00
1:35 AM,23.0,21.2,93,29.26,10.0,WNW,6.9,-,N/A,,Overcast,300,2014-01-25 07:35:00
1:55 AM,23.0,23.0,100,29.27,10.0,North,12.7,18.4,N/A,,Overcast,350,2014-01-25 07:55:00
2:15 AM,21.2,19.4,93,29.29,10.0,North,12.7,19.6,N/A,,Overcast,360,2014-01-25 08:15:00
2:35 AM,21.2,12.2,68,29.30,9.0,North,17.3,25.3,N/A,,Mostly Cloudy,350,2014-01-25 08:35:00
2:55 AM,19.4,3.2,49,29.31,10.0,North,16.1,-,N/A,,Overcast,360,2014-01-25 08:55:00
3:15 AM,17.6,6.8,63,29.32,10.0,North,19.6,25.3,N/A,,Overcast,360,2014-01-25 09:15:00
3:35 AM,17.6,8.6,68,29.33,10.0,North,15.0,20.7,N/A,,Overcast,350,2014-01-25 09:35:00
3:55 AM,17.6,1.4,49,29.33,6.0,North,24.2,34.5,N/A,,Overcast,350,2014-01-25 09:55:00
4:15 AM,15.8,1.4,53,29.35,8.0,North,16.1,28.8,N/A,,Overcast,350,2014-01-25 10:15:00
4:35 AM,15.8,3.2,58,29.36,8.0,NNW,20.7,32.2,N/A,,Overcast,340,2014-01-25 10:35:00
4:55 AM,15.8,6.8,68,29.38,10.0,NNW,13.8,20.7,N/A,,Mostly Cloudy,330,2014-01-25 10:55:00
5:15 AM,12.2,-2.2,53,29.39,10.0,NNW,13.8,23.0,N/A,,Scattered Clouds,330,2014-01-25 11:15:00
5:35 AM,12.2,-2.2,53,29.40,10.0,NNW,9.2,20.7,N/A,,Clear,330,2014-01-25 11:35:00
5:55 AM,10.4,-2.2,57,29.41,10.0,NNW,13.8,19.6,N/A,,Clear,330,2014-01-25 11:55:00
6:15 AM,10.4,-4.0,52,29.43,10.0,NNW,11.5,19.6,N/A,,Partly Cloudy,340,2014-01-25 12:15:00
6:35 AM,10.4,-2.2,57,29.44,10.0,NNW,13.8,-,N/A,,Clear,340,2014-01-25 12:35:00
6:55 AM,8.6,-5.8,52,29.46,10.0,NNW,12.7,20.7,N/A,,Clear,340,2014-01-25 12:55:00
7:15 AM,8.6,-5.8,52,29.47,10.0,NNW,12.7,23.0,N/A,,Clear,340,2014-01-25 13:15:00
7:35 AM,8.6,-5.8,52,29.49,10.0,NNW,6.9,18.4,N/A,,Clear,330,2014-01-25 13:35:00
7:55 AM,6.8,-4.0,61,29.50,10.0,NNW,8.1,20.7,N/A,,Clear,330,2014-01-25 13:55:00
8:15 AM,6.8,-5.8,56,29.51,10.0,NNW,12.7,18.4,N/A,,Clear,330,2014-01-25 14:15:00
8:35 AM,6.8,-5.8,56,29.52,10.0,NNW,17.3,26.5,N/A,,Clear,340,2014-01-25 14:35:00
8:55 AM,8.6,-7.6,48,29.52,10.0,NNW,17.3,31.1,N/A,,Clear,330,2014-01-25 14:55:00
9:15 AM,8.6,-7.6,48,29.53,10.0,NNW,13.8,21.9,N/A,,Clear,340,2014-01-25 15:15:00
9:35 AM,8.6,-7.6,48,29.54,7.0,NNW,15.0,25.3,N/A,,Clear,340,2014-01-25 15:35:00
9:55 AM,8.6,-9.4,44,29.54,8.0,NNW,19.6,26.5,N/A,,Partly Cloudy,340,2014-01-25 15:55:00
10:15 AM,8.6,-9.4,44,29.55,4.0,NNW,21.9,33.4,N/A,,Scattered Clouds,340,2014-01-25 16:15:00
10:35 AM,8.6,-7.6,48,29.56,9.0,NNW,20.7,28.8,N/A,,Mostly Cloudy,340,2014-01-25 16:35:00
10:55 AM,8.6,-9.4,44,29.56,9.0,North,20.7,27.6,N/A,,Mostly Cloudy,350,2014-01-25 16:55:00
11:15 AM,6.8,-7.6,52,29.58,3.0,North,13.8,25.3,N/A,,Mostly Cloudy,10,2014-01-25 17:15:00
11:35 AM,6.8,-0.4,72,29.58,4.0,NNW,15.0,23.0,N/A,,Mostly Cloudy,340,2014-01-25 17:35:00
11:55 AM,6.8,-7.6,52,29.58,8.0,NNW,19.6,23.0,N/A,,Mostly Cloudy,340,2014-01-25 17:55:00
12:15 PM,6.8,1.4,79,29.59,3.0,North,16.1,21.9,N/A,,Mostly Cloudy,350,2014-01-25 18:15:00
12:35 PM,5.0,-11.2,47,29.59,9.0,North,16.1,-,N/A,,Mostly Cloudy,350,2014-01-25 18:35:00
12:55 PM,6.8,3.2,85,29.59,6.0,North,17.3,23.0,N/A,,Mostly Cloudy,360,2014-01-25 18:55:00
1:15 PM,6.8,-11.2,44,29.59,10.0,North,13.8,19.6,N/A,,Mostly Cloudy,350,2014-01-25 19:15:00
1:35 PM,6.8,-4.0,61,29.59,10.0,North,15.0,23.0,N/A,,Overcast,350,2014-01-25 19:35:00
1:55 PM,6.8,-14.8,37,29.59,10.0,NNW,13.8,25.3,N/A,,Overcast,340,2014-01-25 19:55:00
2:15 PM,6.8,-7.6,52,29.60,10.0,North,11.5,17.3,N/A,,Overcast,350,2014-01-25 20:15:00
2:35 PM,5.0,-7.6,56,29.61,8.0,North,10.4,-,N/A,,Overcast,360,2014-01-25 20:35:00
2:55 PM,6.8,-2.2,67,29.62,8.0,North,16.1,20.7,N/A,,Mostly Cloudy,350,2014-01-25 20:55:00
3:15 PM,5.0,-5.8,61,29.63,1.5,North,15.0,19.6,N/A,,Overcast,360,2014-01-25 21:15:00
3:35 PM,3.2,-0.4,85,29.64,10.0,North,9.2,17.3,N/A,,Scattered Clouds,350,2014-01-25 21:35:00
3:55 PM,5.0,-9.4,52,29.65,10.0,NW,5.8,-,N/A,,Scattered Clouds,320,2014-01-25 21:55:00
4:15 PM,5.0,-5.8,61,29.66,4.0,NW,12.7,19.6,N/A,,Mostly Cloudy,320,2014-01-25 22:15:00
4:35 PM,5.0,-7.6,56,29.66,7.0,NNW,11.5,-,N/A,,Overcast,340,2014-01-25 22:35:00
4:55 PM,3.2,-7.6,61,29.67,4.0,NNW,11.5,-,N/A,,Overcast,340,2014-01-25 22:55:00
5:15 PM,3.2,-0.4,85,29.68,10.0,NW,6.9,-,N/A,,Mostly Cloudy,320,2014-01-25 23:15:00
5:35 PM,1.4,-7.6,66,29.70,10.0,NNW,4.6,-,N/A,,Partly Cloudy,330,2014-01-25 23:35:00
5:55 PM,1.4,-9.4,61,29.70,10.0,NNW,4.6,-,N/A,,Clear,330,2014-01-25 23:55:00
6:15 PM,1.4,1.4,100,29.71,10.0,Calm,Calm,-,N/A,,Clear,0,2014-01-26 00:15:00
6:35 PM,1.4,-11.2,56,29.72,10.0,Calm,Calm,-,N/A,,Clear,0,2014-01-26 00:35:00
6:55 PM,-0.4,-13.0,55,29.72,10.0,Calm,Calm,-,N/A,,Clear,0,2014-01-26 00:55:00
7:15 PM,-0.4,-0.4,100,29.72,10.0,WNW,3.5,-,N/A,,Partly Cloudy,290,2014-01-26 01:15:00
7:35 PM,-0.4,-20.2,39,29.72,10.0,WNW,3.5,-,N/A,,Partly Cloudy,300,2014-01-26 01:35:00
7:55 PM,-2.2,-9999,N/A,29.72,10.0,Calm,Calm,-,N/A,,Clear,0,2014-01-26 01:55:00
8:15 PM,-4.0,-18.4,50,29.72,10.0,Calm,Calm,-,N/A,,Clear,0,2014-01-26 02:15:00
8:35 PM,-5.8,-9.4,84,29.72,10.0,Calm,Calm,-,N/A,,Clear,0,2014-01-26 02:35:00
8:55 PM,-7.6,-11.2,84,29.71,10.0,Calm,Calm,-,N/A,,Clear,0,2014-01-26 02:55:00
9:15 PM,-9.4,-25.6,45,29.71,10.0,WSW,3.5,-,N/A,,Clear,240,2014-01-26 03:15:00
9:35 PM,-5.8,-7.6,92,29.71,10.0,WSW,5.8,-,N/A,,Clear,240,2014-01-26 03:35:00
9:55 PM,-4.0,-29.2,29,29.70,10.0,WSW,5.8,-,N/A,,Clear,240,2014-01-26 03:55:00
10:15 PM,-4.0,-11.2,71,29.70,10.0,WSW,3.5,-,N/A,,Clear,250,2014-01-26 04:15:00
10:35 PM,-4.0,-16.6,55,29.70,10.0,WSW,4.6,-,N/A,,Clear,250,2014-01-26 04:35:00
10:55 PM,-4.0,-4.0,100,29.70,10.0,WSW,4.6,-,N/A,,Clear,250,2014-01-26 04:55:00
11:15 PM,-4.0,-20.2,46,29.69,10.0,WSW,5.8,-,N/A,,Clear,240,2014-01-26 05:15:00
11:35 PM,-4.0,-9999,N/A,29.68,10.0,WSW,4.6,-,N/A,,Clear,240,2014-01-26 05:35:00
11:55 PM,-4.0,-23.8,38,29.66,10.0,WSW,5.8,-,N/A,,Clear,250,2014-01-26 05:55:00